Location: Unspecified
(42.9300°N, 71.1866°W)
Time: 20:39:55
(UTC-04:00)

Envisat - Visible Passes

Search period start: 19 April 2014 00:00
Search period end: 29 April 2014 00:00
Orbit: 765 x 767 km, 98.4° (Epoch: 19 April)

Date Brightness Start Highest point End Pass type
(mag) Time Alt. Az. Time Alt. Az. Time Alt. Az.
19 Apr 4.4 20:55:49 18° E 20:57:34 22° ENE 21:01:22 10° NNE visible
19 Apr 3.5 22:36:01 49° WSW 22:36:14 50° W 22:41:10 10° NNW visible
20 Apr 5.1 20:20:37 10° ENE 20:21:34 11° ENE 20:22:31 10° NE visible
20 Apr 2.9 21:58:59 64° SE 21:59:41 76° ENE 22:04:46 10° N visible
20 Apr 5.4 23:39:12 13° W 23:39:15 13° W 23:41:34 10° WNW visible
21 Apr 3.8 21:21:57 30° E 21:23:20 35° ENE 21:27:56 10° N visible
21 Apr 4.4 23:02:10 28° W 23:02:22 29° W 23:06:45 10° NW visible
22 Apr 4.7 20:44:55 14° E 20:47:11 18° ENE 20:50:30 10° NNE visible
22 Apr 3.2 22:25:08 58° SW 22:25:41 63° WSW 22:30:44 10° NNW visible
23 Apr 3.1 21:48:06 48° ESE 21:49:12 61° ENE 21:54:13 10° N visible
23 Apr 5.1 23:28:18 16° W 23:28:37 17° W 23:31:48 10° NW visible
24 Apr 4.1 21:11:04 23° E 21:12:55 29° ENE 21:17:14 10° N visible
24 Apr 4.1 22:51:16 35° WSW 22:51:48 35° W 22:56:27 10° NNW visible
25 Apr 4.9 20:34:08 10° E 20:36:49 15° ENE 20:39:30 10° NNE visible
25 Apr 3.0 22:14:14 59° S 22:15:10 78° WSW 22:20:16 10° NNW visible
26 Apr 3.3 21:37:12 37° ESE 21:38:44 49° ENE 21:43:37 10° N visible
26 Apr 4.9 23:17:25 20° WSW 23:18:00 21° W 23:21:46 10° NW visible
27 Apr 4.3 21:00:10 17° E 21:02:30 24° ENE 21:06:29 10° NNE visible
27 Apr 3.7 22:40:23 41° SW 22:41:14 44° W 22:46:05 10° NNW visible
28 Apr 5.0 20:24:42 10° ENE 20:26:28 12° ENE 20:28:13 10° NE visible
28 Apr 2.9 22:03:21 51° SSE 22:04:39 84° ENE 22:09:46 10° NNW visible
28 Apr 5.5 23:43:34 11° W 23:44:18 11° W 23:45:56 10° WNW visible
